الصفحة الرئيسية
METAR-TAF:

METAR-TAF

مطار :

Grant County Airport

سيلفر سيتي, نيومكسيكو, الولايات المتحدة

دائرة عرض: 32-38N, خط طول: 108-09W, ارتفاع: 1659 متر

مراقبة الطقس الحالي

تاريخ ووقت الإصدار 16 دقيقة قبل الساعة 09:55UTC
ريح 5 عقدة من الشرق
درجة الحرارة 9°درجة مئوية
الرطوبة 37%
ضغط 1029 hPa
الرؤية: 16.1 كم
سماء صافية

METAR: KSVC 290955Z AUTO 09005KT 10SM CLR 09/M05 A3040 RMK AO2 T00931047

زمن: 04:11 (10:11 UTC)


TAF: مفقودة

أرصاد الطقس والتوقعات من أكثر من 4000 مطار (تقارير الطقس للمطار METAR والتنبؤ بالطقس بالمطارTAF).

المحطات المتاحة هي النقط الصفراء والحمراء على الخريطة.

حرك المؤشر فوق النقطة لمعرفة اسم المحطة.

ثم انقر لمعرفة أرصاد وتوقعات الطقس.

لتغيير الخارطة: اضغط على الأزرار الخضراء مع رمز الصليب الأسود للتكبير. على الزر الأخضر مع شرطة للتصغير، أو على الأسهم الخضراء للخرائط المجاورة.


METAR-TAF: